Time,TemperatureF,DewpointF,PressureIn,WindDirection,WindDirectionDegrees,WindSpeedMPH,WindSpeedGustMPH,Humidity,HourlyPrecipIn,Conditions,Clouds,dailyrainin,SoftwareType,DateUTC
2013-09-25 00:04:00,67.2,65.4,29.82,ESE,107,0.0,0.0,94,0.00,,,0.00,Wunderground v.1.15,2013-09-25 05:04:00,
2013-09-25 00:09:00,67.3,65.5,29.82,SE,131,0.0,0.0,94,0.00,,,0.00,Wunderground v.1.15,2013-09-25 05:09:00,
2013-09-25 00:14:00,67.3,65.5,29.82,West,280,0.0,3.0,94,0.00,,,0.00,Wunderground v.1.15,2013-09-25 05:14:00,
2013-09-25 00:20:00,67.5,65.7,29.82,West,260,2.0,2.0,94,0.00,,,0.00,Wunderground v.1.15,2013-09-25 05:20:00,
2013-09-25 00:25:00,67.8,65.7,29.82,West,264,2.0,2.0,93,0.00,,,0.00,Wunderground v.1.15,2013-09-25 05:25:00,
2013-09-25 00:30:00,67.9,65.8,29.82,WNW,290,1.0,1.0,93,0.00,,,0.00,Wunderground v.1.15,2013-09-25 05:30:00,
2013-09-25 00:35:00,68.0,65.9,29.82,WNW,290,1.0,3.0,93,0.00,,,0.01,Wunderground v.1.15,2013-09-25 05:35:00,
2013-09-25 00:40:00,68.0,65.6,29.82,West,264,1.0,1.0,92,0.00,,,0.01,Wunderground v.1.15,2013-09-25 05:40:00,
2013-09-25 00:45:00,67.9,65.5,29.82,ESE,115,1.0,1.0,92,0.08,,,0.02,Wunderground v.1.15,2013-09-25 05:45:00,
2013-09-25 00:51:00,67.7,65.3,29.82,East,101,0.0,1.0,92,0.08,,,0.03,Wunderground v.1.15,2013-09-25 05:51:00,
2013-09-25 00:56:00,67.4,65.3,29.81,East,96,1.0,2.0,93,0.08,,,0.03,Wunderground v.1.15,2013-09-25 05:56:00,
2013-09-25 01:01:00,67.0,64.9,29.81,ESE,106,1.0,1.0,93,0.08,,,0.04,Wunderground v.1.15,2013-09-25 06:01:00,
2013-09-25 01:06:00,66.9,65.1,29.82,SE,127,0.0,1.0,94,0.06,,,0.04,Wunderground v.1.15,2013-09-25 06:06:00,
2013-09-25 01:11:00,66.7,64.9,29.81,SE,127,0.0,0.0,94,0.04,,,0.04,Wunderground v.1.15,2013-09-25 06:11:00,
2013-09-25 01:16:00,66.6,64.8,29.81,ESE,123,0.0,1.0,94,0.00,,,0.04,Wunderground v.1.15,2013-09-25 06:16:00,
2013-09-25 01:21:00,66.4,64.9,29.81,SE,128,1.0,1.0,95,0.00,,,0.04,Wunderground v.1.15,2013-09-25 06:21:00,
2013-09-25 01:27:00,66.2,64.7,29.80,SE,127,0.0,1.0,95,0.00,,,0.04,Wunderground v.1.15,2013-09-25 06:27:00,
2013-09-25 01:32:00,66.1,64.6,29.80,SE,132,0.0,1.0,95,0.00,,,0.04,Wunderground v.1.15,2013-09-25 06:32:00,
2013-09-25 01:37:00,66.0,64.5,29.80,SE,134,0.0,1.0,95,0.00,,,0.04,Wunderground v.1.15,2013-09-25 06:37:00,
2013-09-25 01:42:00,66.0,64.5,29.80,ESE,107,0.0,0.0,95,0.00,,,0.04,Wunderground v.1.15,2013-09-25 06:42:00,
2013-09-25 01:47:00,66.0,64.5,29.81,ESE,107,0.0,0.0,95,0.00,,,0.04,Wunderground v.1.15,2013-09-25 06:47:00,
2013-09-25 01:52:00,65.9,64.4,29.80,ESE,107,0.0,0.0,95,0.00,,,0.04,Wunderground v.1.15,2013-09-25 06:52:00,
2013-09-25 01:58:00,65.8,64.3,29.80,ESE,107,0.0,0.0,95,0.00,,,0.04,Wunderground v.1.15,2013-09-25 06:58:00,
2013-09-25 02:03:00,65.6,64.1,29.80,ESE,107,0.0,0.0,95,0.00,,,0.04,Wunderground v.1.15,2013-09-25 07:03:00,
2013-09-25 02:08:00,65.5,64.0,29.80,ESE,107,0.0,0.0,95,0.00,,,0.04,Wunderground v.1.15,2013-09-25 07:08:00,
2013-09-25 02:13:00,65.4,63.9,29.80,ESE,107,0.0,0.0,95,0.00,,,0.04,Wunderground v.1.15,2013-09-25 07:13:00,
2013-09-25 02:18:00,65.3,63.8,29.80,ESE,107,0.0,0.0,95,0.00,,,0.04,Wunderground v.1.15,2013-09-25 07:18:00,
2013-09-25 02:24:00,65.1,63.9,29.81,ESE,107,0.0,0.0,96,0.00,,,0.04,Wunderground v.1.15,2013-09-25 07:24:00,
2013-09-25 02:29:00,65.0,63.8,29.81,ESE,107,0.0,0.0,96,0.00,,,0.04,Wunderground v.1.15,2013-09-25 07:29:00,
2013-09-25 02:34:00,65.0,63.8,29.81,ESE,108,0.0,0.0,96,0.00,,,0.04,Wunderground v.1.15,2013-09-25 07:34:00,
2013-09-25 02:39:00,64.8,63.6,29.81,ESE,107,0.0,0.0,96,0.00,,,0.04,Wunderground v.1.15,2013-09-25 07:39:00,
2013-09-25 02:45:00,64.8,63.6,29.80,ESE,107,0.0,0.0,96,0.00,,,0.04,Wunderground v.1.15,2013-09-25 07:45:00,
2013-09-25 02:50:00,64.7,63.5,29.80,ESE,107,0.0,0.0,96,0.00,,,0.04,Wunderground v.1.15,2013-09-25 07:50:00,
2013-09-25 02:55:00,64.6,63.4,29.80,SE,125,0.0,0.0,96,0.00,,,0.04,Wunderground v.1.15,2013-09-25 07:55:00,
2013-09-25 03:00:00,64.6,63.4,29.80,SE,126,0.0,0.0,96,0.00,,,0.04,Wunderground v.1.15,2013-09-25 08:00:00,
2013-09-25 03:06:00,64.6,63.4,29.80,SE,125,0.0,0.0,96,0.00,,,0.04,Wunderground v.1.15,2013-09-25 08:06:00,
2013-09-25 03:11:00,64.4,63.2,29.80,SE,125,0.0,0.0,96,0.00,,,0.04,Wunderground v.1.15,2013-09-25 08:11:00,
2013-09-25 03:16:00,64.2,63.0,29.80,ESE,122,0.0,0.0,96,0.00,,,0.04,Wunderground v.1.15,2013-09-25 08:16:00,
2013-09-25 03:21:00,64.0,62.8,29.80,ESE,121,0.0,0.0,96,0.00,,,0.04,Wunderground v.1.15,2013-09-25 08:21:00,
2013-09-25 03:27:00,63.9,62.7,29.80,ESE,122,0.0,0.0,96,0.00,,,0.04,Wunderground v.1.15,2013-09-25 08:27:00,
2013-09-25 03:32:00,63.8,62.6,29.80,WSW,238,0.0,0.0,96,0.00,,,0.04,Wunderground v.1.15,2013-09-25 08:32:00,
2013-09-25 03:37:00,63.9,62.7,29.80,WSW,238,0.0,0.0,96,0.00,,,0.04,Wunderground v.1.15,2013-09-25 08:37:00,
2013-09-25 03:43:00,63.8,62.6,29.80,SSW,192,0.0,0.0,96,0.00,,,0.04,Wunderground v.1.15,2013-09-25 08:43:00,
2013-09-25 03:48:00,63.8,62.6,29.80,SSW,192,0.0,0.0,96,0.00,,,0.04,Wunderground v.1.15,2013-09-25 08:48:00,
2013-09-25 03:53:00,63.7,62.5,29.80,South,191,0.0,0.0,96,0.00,,,0.04,Wunderground v.1.15,2013-09-25 08:53:00,
2013-09-25 03:58:00,63.7,62.5,29.80,SSW,192,0.0,0.0,96,0.00,,,0.04,Wunderground v.1.15,2013-09-25 08:58:00,
2013-09-25 04:03:00,63.6,62.4,29.80,SSW,192,0.0,0.0,96,0.00,,,0.04,Wunderground v.1.15,2013-09-25 09:03:00,
2013-09-25 04:09:00,63.5,62.3,29.80,SSW,192,0.0,0.0,96,0.00,,,0.04,Wunderground v.1.15,2013-09-25 09:09:00,
2013-09-25 04:14:00,63.4,62.2,29.80,South,191,0.0,0.0,96,0.00,,,0.04,Wunderground v.1.15,2013-09-25 09:14:00,
2013-09-25 04:20:00,63.4,62.5,29.80,South,191,0.0,0.0,97,0.00,,,0.04,Wunderground v.1.15,2013-09-25 09:20:00,
2013-09-25 04:25:00,63.4,62.5,29.80,SSW,192,0.0,0.0,97,0.00,,,0.04,Wunderground v.1.15,2013-09-25 09:25:00,
2013-09-25 04:30:00,63.4,62.5,29.80,South,191,0.0,0.0,97,0.00,,,0.04,Wunderground v.1.15,2013-09-25 09:30:00,
2013-09-25 04:35:00,63.3,62.4,29.80,SSW,192,0.0,0.0,97,0.00,,,0.05,Wunderground v.1.15,2013-09-25 09:35:00,
2013-09-25 04:40:00,63.4,62.5,29.80,South,191,0.0,0.0,97,0.00,,,0.05,Wunderground v.1.15,2013-09-25 09:40:00,
2013-09-25 04:45:00,63.5,62.6,29.81,SSW,192,0.0,0.0,97,0.00,,,0.05,Wunderground v.1.15,2013-09-25 09:45:00,
2013-09-25 04:50:00,63.6,62.7,29.81,South,191,0.0,0.0,97,0.00,,,0.05,Wunderground v.1.15,2013-09-25 09:50:00,
2013-09-25 04:55:00,63.6,62.7,29.81,SSW,192,0.0,0.0,97,0.00,,,0.05,Wunderground v.1.15,2013-09-25 09:55:00,
2013-09-25 05:00:00,63.7,62.8,29.81,SSW,192,0.0,0.0,97,0.00,,,0.05,Wunderground v.1.15,2013-09-25 10:00:00,
2013-09-25 05:06:00,63.7,62.8,29.81,South,191,0.0,0.0,97,0.00,,,0.05,Wunderground v.1.15,2013-09-25 10:06:00,
2013-09-25 05:11:00,63.8,62.9,29.81,SSW,192,0.0,0.0,97,0.00,,,0.05,Wunderground v.1.15,2013-09-25 10:11:00,
2013-09-25 05:16:00,63.9,63.0,29.81,South,191,0.0,0.0,97,0.00,,,0.05,Wunderground v.1.15,2013-09-25 10:16:00,
2013-09-25 05:21:00,64.0,63.1,29.81,SSW,204,0.0,0.0,97,0.00,,,0.05,Wunderground v.1.15,2013-09-25 10:21:00,
2013-09-25 05:26:00,64.0,63.1,29.81,SSW,203,0.0,0.0,97,0.00,,,0.05,Wunderground v.1.15,2013-09-25 10:26:00,
2013-09-25 05:31:00,64.0,63.1,29.81,SSW,204,0.0,0.0,97,0.00,,,0.05,Wunderground v.1.15,2013-09-25 10:31:00,
2013-09-25 05:36:00,64.0,63.1,29.81,SSW,204,0.0,0.0,97,0.00,,,0.05,Wunderground v.1.15,2013-09-25 10:36:00,
2013-09-25 05:41:00,64.0,63.1,29.81,SSW,204,0.0,0.0,97,0.00,,,0.05,Wunderground v.1.15,2013-09-25 10:41:00,
2013-09-25 05:47:00,63.9,63.0,29.81,SSW,204,0.0,0.0,97,0.00,,,0.05,Wunderground v.1.15,2013-09-25 10:47:00,
2013-09-25 05:52:00,63.9,63.0,29.81,SSW,204,0.0,0.0,97,0.00,,,0.05,Wunderground v.1.15,2013-09-25 10:52:00,
2013-09-25 05:57:00,63.8,62.9,29.81,SSW,204,0.0,0.0,97,0.00,,,0.05,Wunderground v.1.15,2013-09-25 10:57:00,
2013-09-25 06:03:00,63.8,62.9,29.82,SSW,204,0.0,0.0,97,0.00,,,0.05,Wunderground v.1.15,2013-09-25 11:03:00,
2013-09-25 06:08:00,63.8,62.9,29.82,East,86,0.0,0.0,97,0.00,,,0.05,Wunderground v.1.15,2013-09-25 11:08:00,
2013-09-25 06:13:00,63.9,63.0,29.82,East,89,0.0,0.0,97,0.00,,,0.05,Wunderground v.1.15,2013-09-25 11:13:00,
2013-09-25 06:18:00,63.9,63.0,29.82,ESE,103,0.0,1.0,97,0.00,,,0.05,Wunderground v.1.15,2013-09-25 11:18:00,
2013-09-25 06:23:00,64.0,63.1,29.82,ESE,103,0.0,0.0,97,0.00,,,0.05,Wunderground v.1.15,2013-09-25 11:23:00,
2013-09-25 06:28:00,64.0,63.1,29.83,ESE,103,0.0,0.0,97,0.00,,,0.05,Wunderground v.1.15,2013-09-25 11:28:00,
2013-09-25 06:33:00,64.0,63.1,29.83,ESE,103,0.0,0.0,97,0.00,,,0.05,Wunderground v.1.15,2013-09-25 11:33:00,
2013-09-25 06:38:00,64.0,63.1,29.83,ESE,103,0.0,0.0,97,0.00,,,0.05,Wunderground v.1.15,2013-09-25 11:38:00,
2013-09-25 06:43:00,64.0,63.1,29.83,ESE,103,0.0,0.0,97,0.00,,,0.05,Wunderground v.1.15,2013-09-25 11:43:00,
2013-09-25 06:48:00,64.0,63.1,29.83,ESE,103,0.0,0.0,97,0.00,,,0.05,Wunderground v.1.15,2013-09-25 11:48:00,
2013-09-25 06:53:00,63.9,63.0,29.83,ESE,103,0.0,0.0,97,0.00,,,0.05,Wunderground v.1.15,2013-09-25 11:53:00,
2013-09-25 06:58:00,64.0,63.1,29.83,ESE,103,0.0,0.0,97,0.00,,,0.05,Wunderground v.1.15,2013-09-25 11:58:00,
2013-09-25 07:04:00,64.0,63.1,29.83,ESE,103,0.0,0.0,97,0.00,,,0.05,Wunderground v.1.15,2013-09-25 12:04:00,
2013-09-25 07:10:00,64.0,63.1,29.83,ESE,103,0.0,0.0,97,0.00,,,0.05,Wunderground v.1.15,2013-09-25 12:10:00,
2013-09-25 07:15:00,64.0,63.1,29.84,ESE,103,0.0,0.0,97,0.00,,,0.05,Wunderground v.1.15,2013-09-25 12:15:00,
2013-09-25 07:20:00,64.1,63.2,29.84,ESE,103,0.0,0.0,97,0.00,,,0.05,Wunderground v.1.15,2013-09-25 12:20:00,
2013-09-25 07:25:00,64.2,63.3,29.84,ESE,103,0.0,0.0,97,0.00,,,0.05,Wunderground v.1.15,2013-09-25 12:25:00,
2013-09-25 07:27:00,64.2,63.3,29.84,ESE,103,0.0,0.0,97,0.00,,,0.05,Wunderground v.1.15,2013-09-25 12:27:00,
2013-09-25 07:32:00,64.4,63.5,29.84,ESE,103,0.0,0.0,97,0.00,,,0.05,Wunderground v.1.15,2013-09-25 12:32:00,
2013-09-25 07:37:00,64.5,63.6,29.84,ESE,103,0.0,0.0,97,0.00,,,0.05,Wunderground v.1.15,2013-09-25 12:37:00,
2013-09-25 07:42:00,64.6,63.7,29.84,ESE,103,0.0,0.0,97,0.00,,,0.05,Wunderground v.1.15,2013-09-25 12:42:00,
2013-09-25 07:47:00,64.7,63.8,29.84,ESE,103,0.0,0.0,97,0.00,,,0.05,Wunderground v.1.15,2013-09-25 12:47:00,
2013-09-25 07:53:00,64.7,63.8,29.84,ENE,65,0.0,3.0,97,0.00,,,0.05,Wunderground v.1.15,2013-09-25 12:53:00,
2013-09-25 07:58:00,64.8,63.9,29.84,ENE,67,1.0,3.0,97,0.00,,,0.05,Wunderground v.1.15,2013-09-25 12:58:00,
2013-09-25 08:04:00,65.1,64.2,29.84,ENE,68,1.0,2.0,97,0.00,,,0.05,Wunderground v.1.15,2013-09-25 13:04:00,
2013-09-25 08:10:00,65.4,64.5,29.84,ENE,61,1.0,1.0,97,0.00,,,0.05,Wunderground v.1.15,2013-09-25 13:10:00,
2013-09-25 08:15:00,65.8,64.9,29.84,ENE,71,0.0,1.0,97,0.00,,,0.05,Wunderground v.1.15,2013-09-25 13:15:00,
2013-09-25 08:20:00,65.9,64.7,29.84,ENE,72,1.0,1.0,96,0.00,,,0.05,Wunderground v.1.15,2013-09-25 13:20:00,
2013-09-25 08:26:00,66.1,64.9,29.84,ENE,64,1.0,1.0,96,0.00,,,0.05,Wunderground v.1.15,2013-09-25 13:26:00,
2013-09-25 08:31:00,66.3,65.1,29.84,SE,139,1.0,1.0,96,0.00,,,0.05,Wunderground v.1.15,2013-09-25 13:31:00,
2013-09-25 08:36:00,66.5,65.0,29.84,East,79,1.0,2.0,95,0.00,,,0.05,Wunderground v.1.15,2013-09-25 13:36:00,
2013-09-25 08:41:00,66.6,65.1,29.84,SSE,153,1.0,2.0,95,0.00,,,0.05,Wunderground v.1.15,2013-09-25 13:41:00,
2013-09-25 08:47:00,66.6,64.8,29.84,East,94,1.0,2.0,94,0.00,,,0.05,Wunderground v.1.15,2013-09-25 13:47:00,
2013-09-25 08:52:00,66.9,65.1,29.85,ENE,75,1.0,1.0,94,0.00,,,0.05,Wunderground v.1.15,2013-09-25 13:52:00,
2013-09-25 08:57:00,66.9,65.1,29.84,SE,143,1.0,2.0,94,0.00,,,0.05,Wunderground v.1.15,2013-09-25 13:57:00,
2013-09-25 09:02:00,67.2,65.1,29.84,ESE,107,1.0,1.0,93,0.00,,,0.05,Wunderground v.1.15,2013-09-25 14:02:00,
2013-09-25 09:08:00,67.5,65.4,29.84,ESE,110,0.0,1.0,93,0.00,,,0.05,Wunderground v.1.15,2013-09-25 14:08:00,
2013-09-25 09:13:00,67.8,65.7,29.84,ESE,110,0.0,0.0,93,0.00,,,0.05,Wunderground v.1.15,2013-09-25 14:13:00,
2013-09-25 09:19:00,68.2,65.8,29.84,ESE,110,0.0,0.0,92,0.00,,,0.05,Wunderground v.1.15,2013-09-25 14:19:00,
2013-09-25 09:24:00,68.2,65.5,29.84,ESE,106,0.0,1.0,91,0.00,,,0.05,Wunderground v.1.15,2013-09-25 14:24:00,
2013-09-25 09:29:00,68.3,65.6,29.84,ESE,113,0.0,1.0,91,0.00,,,0.05,Wunderground v.1.15,2013-09-25 14:29:00,
2013-09-25 09:34:00,68.5,65.8,29.85,East,99,0.0,1.0,91,0.00,,,0.05,Wunderground v.1.15,2013-09-25 14:34:00,
2013-09-25 09:39:00,68.5,65.8,29.85,ESE,120,0.0,1.0,91,0.00,,,0.05,Wunderground v.1.15,2013-09-25 14:39:00,
2013-09-25 09:44:00,68.6,65.9,29.85,East,83,0.0,0.0,91,0.00,,,0.05,Wunderground v.1.15,2013-09-25 14:44:00,
2013-09-25 09:50:00,69.6,66.9,29.85,ENE,75,0.0,0.0,91,0.00,,,0.05,Wunderground v.1.15,2013-09-25 14:50:00,
2013-09-25 09:55:00,70.3,66.6,29.85,NE,41,0.0,1.0,88,0.00,,,0.05,Wunderground v.1.15,2013-09-25 14:55:00,
2013-09-25 10:00:00,71.2,67.1,29.85,ENE,72,1.0,2.0,87,0.00,,,0.05,Wunderground v.1.15,2013-09-25 15:00:00,
2013-09-25 10:06:00,72.1,67.3,29.84,East,95,1.0,2.0,85,0.00,,,0.05,Wunderground v.1.15,2013-09-25 15:06:00,
2013-09-25 10:11:00,72.7,67.2,29.84,NE,40,0.0,1.0,83,0.00,,,0.05,Wunderground v.1.15,2013-09-25 15:11:00,
2013-09-25 10:16:00,73.4,67.6,29.84,East,87,1.0,1.0,82,0.00,,,0.05,Wunderground v.1.15,2013-09-25 15:16:00,
2013-09-25 10:21:00,73.9,68.1,29.84,ENE,69,1.0,3.0,82,0.00,,,0.05,Wunderground v.1.15,2013-09-25 15:21:00,
2013-09-25 10:26:00,74.2,67.6,29.84,ENE,72,1.0,4.0,80,0.00,,,0.05,Wunderground v.1.15,2013-09-25 15:26:00,
2013-09-25 10:32:00,74.9,67.6,29.84,ESE,114,2.0,4.0,78,0.00,,,0.05,Wunderground v.1.15,2013-09-25 15:32:00,
2013-09-25 10:37:00,75.3,67.6,29.84,ENE,57,3.0,4.0,77,0.00,,,0.05,Wunderground v.1.15,2013-09-25 15:37:00,
2013-09-25 10:42:00,75.8,66.9,29.84,ESE,119,3.0,3.0,74,0.00,,,0.05,Wunderground v.1.15,2013-09-25 15:42:00,
2013-09-25 10:47:00,76.1,66.8,29.84,ESE,120,3.0,4.0,73,0.00,,,0.05,Wunderground v.1.15,2013-09-25 15:47:00,
2013-09-25 10:52:00,76.4,67.1,29.84,ENE,64,3.0,4.0,73,0.00,,,0.05,Wunderground v.1.15,2013-09-25 15:52:00,
2013-09-25 10:57:00,76.9,67.2,29.84,East,90,3.0,4.0,72,0.00,,,0.05,Wunderground v.1.15,2013-09-25 15:57:00,
2013-09-25 11:03:00,77.0,66.9,29.84,East,94,3.0,6.0,71,0.00,,,0.05,Wunderground v.1.15,2013-09-25 16:03:00,
2013-09-25 11:08:00,77.0,67.3,29.84,East,89,3.0,6.0,72,0.00,,,0.05,Wunderground v.1.15,2013-09-25 16:08:00,
2013-09-25 11:13:00,77.3,67.2,29.84,East,95,3.0,4.0,71,0.00,,,0.05,Wunderground v.1.15,2013-09-25 16:13:00,
2013-09-25 11:18:00,77.7,67.5,29.84,East,101,3.0,4.0,71,0.00,,,0.05,Wunderground v.1.15,2013-09-25 16:18:00,
2013-09-25 11:23:00,78.1,67.9,29.84,SE,146,2.0,3.0,71,0.00,,,0.05,Wunderground v.1.15,2013-09-25 16:23:00,
2013-09-25 11:28:00,78.3,67.7,29.84,East,88,2.0,6.0,70,0.00,,,0.05,Wunderground v.1.15,2013-09-25 16:28:00,
2013-09-25 11:33:00,79.3,67.8,29.84,East,89,3.0,4.0,68,0.00,,,0.05,Wunderground v.1.15,2013-09-25 16:33:00,
2013-09-25 11:38:00,79.8,67.4,29.84,ESE,103,3.0,5.0,66,0.00,,,0.05,Wunderground v.1.15,2013-09-25 16:38:00,
2013-09-25 11:43:00,79.7,67.3,29.84,ENE,70,4.0,7.0,66,0.00,,,0.05,Wunderground v.1.15,2013-09-25 16:43:00,
2013-09-25 11:49:00,79.6,67.2,29.84,East,88,4.0,7.0,66,0.00,,,0.05,Wunderground v.1.15,2013-09-25 16:49:00,
2013-09-25 11:54:00,79.3,67.0,29.84,North,8,3.0,4.0,66,0.00,,,0.05,Wunderground v.1.15,2013-09-25 16:54:00,
2013-09-25 11:59:00,79.7,67.3,29.84,ESE,116,3.0,5.0,66,0.00,,,0.05,Wunderground v.1.15,2013-09-25 16:59:00,
2013-09-25 12:04:00,79.3,66.1,29.84,East,98,3.0,4.0,64,0.00,,,0.05,Wunderground v.1.15,2013-09-25 17:04:00,
2013-09-25 12:10:00,78.9,66.6,29.83,SE,125,3.0,3.0,66,0.00,,,0.05,Wunderground v.1.15,2013-09-25 17:10:00,
2013-09-25 12:16:00,79.2,67.7,29.83,ENE,77,2.0,3.0,68,0.00,,,0.05,Wunderground v.1.15,2013-09-25 17:16:00,
2013-09-25 12:21:00,79.7,66.9,29.83,SE,124,3.0,3.0,65,0.00,,,0.05,Wunderground v.1.15,2013-09-25 17:21:00,
2013-09-25 12:26:00,79.3,66.5,29.83,South,186,3.0,3.0,65,0.00,,,0.05,Wunderground v.1.15,2013-09-25 17:26:00,
2013-09-25 12:31:00,79.8,67.4,29.83,East,80,2.0,2.0,66,0.00,,,0.05,Wunderground v.1.15,2013-09-25 17:31:00,
2013-09-25 12:36:00,80.3,67.5,29.83,East,84,3.0,6.0,65,0.00,,,0.05,Wunderground v.1.15,2013-09-25 17:36:00,
2013-09-25 12:41:00,80.7,66.9,29.83,East,90,3.0,6.0,63,0.00,,,0.05,Wunderground v.1.15,2013-09-25 17:41:00,
2013-09-25 12:46:00,80.1,67.3,29.83,ENE,63,2.0,6.0,65,0.00,,,0.05,Wunderground v.1.15,2013-09-25 17:46:00,
2013-09-25 12:52:00,79.9,66.6,29.82,WSW,238,2.0,3.0,64,0.00,,,0.05,Wunderground v.1.15,2013-09-25 17:52:00,
2013-09-25 12:57:00,80.4,66.2,29.82,ENE,59,3.0,5.0,62,0.00,,,0.05,Wunderground v.1.15,2013-09-25 17:57:00,
2013-09-25 13:02:00,80.9,66.7,29.82,ENE,78,3.0,4.0,62,0.00,,,0.05,Wunderground v.1.15,2013-09-25 18:02:00,
2013-09-25 13:07:00,80.4,67.1,29.82,East,99,2.0,4.0,64,0.00,,,0.05,Wunderground v.1.15,2013-09-25 18:07:00,
2013-09-25 13:12:00,79.8,66.5,29.82,SE,146,1.0,1.0,64,0.00,,,0.05,Wunderground v.1.15,2013-09-25 18:12:00,
2013-09-25 13:17:00,79.7,66.4,29.82,East,97,0.0,1.0,64,0.00,,,0.05,Wunderground v.1.15,2013-09-25 18:17:00,
2013-09-25 13:22:00,80.5,68.1,29.82,ESE,105,1.0,3.0,66,0.00,,,0.05,Wunderground v.1.15,2013-09-25 18:22:00,
2013-09-25 13:28:00,81.5,66.8,29.81,ENE,58,2.0,4.0,61,0.00,,,0.05,Wunderground v.1.15,2013-09-25 18:28:00,
2013-09-25 13:33:00,82.4,66.6,29.81,SE,138,3.0,6.0,59,0.00,,,0.05,Wunderground v.1.15,2013-09-25 18:33:00,
2013-09-25 13:39:00,82.4,66.1,29.81,ENE,63,3.0,6.0,58,0.00,,,0.05,Wunderground v.1.15,2013-09-25 18:39:00,
2013-09-25 13:44:00,82.5,66.2,29.81,ENE,68,3.0,5.0,58,0.00,,,0.05,Wunderground v.1.15,2013-09-25 18:44:00,
2013-09-25 13:49:00,83.0,66.2,29.81,ENE,67,3.0,5.0,57,0.00,,,0.05,Wunderground v.1.15,2013-09-25 18:49:00,
2013-09-25 13:54:00,83.2,65.9,29.81,ESE,117,3.0,5.0,56,0.00,,,0.05,Wunderground v.1.15,2013-09-25 18:54:00,
2013-09-25 13:59:00,83.2,65.9,29.81,NE,41,3.0,5.0,56,0.00,,,0.05,Wunderground v.1.15,2013-09-25 18:59:00,
2013-09-25 14:05:00,82.9,65.6,29.81,SE,135,3.0,6.0,56,0.00,,,0.05,Wunderground v.1.15,2013-09-25 19:05:00,
2013-09-25 14:10:00,82.9,65.1,29.81,NE,47,4.0,4.0,55,0.00,,,0.05,Wunderground v.1.15,2013-09-25 19:10:00,
2013-09-25 14:15:00,82.9,65.6,29.81,East,84,4.0,5.0,56,0.00,,,0.05,Wunderground v.1.15,2013-09-25 19:15:00,
2013-09-25 14:21:00,82.9,65.1,29.81,East,82,4.0,4.0,55,0.00,,,0.05,Wunderground v.1.15,2013-09-25 19:21:00,
2013-09-25 14:36:00,82.8,66.0,29.80,South,179,4.0,6.0,57,0.00,,,0.05,Wunderground v.1.15,2013-09-25 19:36:00,
2013-09-25 14:41:00,82.9,65.1,29.80,ESE,115,3.0,4.0,55,0.00,,,0.05,Wunderground v.1.15,2013-09-25 19:41:00,
2013-09-25 14:50:00,83.5,65.6,29.81,NE,53,3.0,4.0,55,0.00,,,0.05,Wunderground v.1.15,2013-09-25 19:50:00,
2013-09-25 14:55:00,83.2,64.8,29.81,East,101,4.0,7.0,54,0.00,,,0.05,Wunderground v.1.15,2013-09-25 19:55:00,
2013-09-25 15:23:00,82.1,64.8,29.81,ENE,61,2.0,3.0,56,0.00,,,0.05,Wunderground v.1.15,2013-09-25 20:23:00,
2013-09-25 15:28:00,82.0,64.8,29.80,ENE,70,2.0,3.0,56,0.00,,,0.05,Wunderground v.1.15,2013-09-25 20:28:00,
2013-09-25 15:33:00,81.6,64.9,29.80,East,86,2.0,4.0,57,0.00,,,0.05,Wunderground v.1.15,2013-09-25 20:33:00,
2013-09-25 15:39:00,81.7,65.0,29.80,SE,132,2.0,4.0,57,0.00,,,0.05,Wunderground v.1.15,2013-09-25 20:39:00,
2013-09-25 15:45:00,81.2,66.0,29.80,SE,142,2.0,4.0,60,0.00,,,0.05,Wunderground v.1.15,2013-09-25 20:45:00,
2013-09-25 15:50:00,80.9,67.1,29.80,SE,125,1.0,1.0,63,0.00,,,0.05,Wunderground v.1.15,2013-09-25 20:50:00,
2013-09-25 15:55:00,81.3,65.1,29.80,ESE,109,1.0,3.0,58,0.00,,,0.05,Wunderground v.1.15,2013-09-25 20:55:00,
2013-09-25 16:00:00,82.1,64.8,29.80,SE,132,1.0,1.0,56,0.00,,,0.05,Wunderground v.1.15,2013-09-25 21:00:00,
2013-09-25 16:06:00,82.9,64.5,29.80,ESE,121,1.0,3.0,54,0.00,,,0.05,Wunderground v.1.15,2013-09-25 21:06:00,
2013-09-25 16:11:00,83.4,65.5,29.80,ESE,105,1.0,1.0,55,0.00,,,0.05,Wunderground v.1.15,2013-09-25 21:11:00,
2013-09-25 16:16:00,83.8,64.3,29.80,NE,51,1.0,5.0,52,0.00,,,0.05,Wunderground v.1.15,2013-09-25 21:16:00,
2013-09-25 16:21:00,83.6,63.6,29.80,ESE,108,3.0,3.0,51,0.00,,,0.05,Wunderground v.1.15,2013-09-25 21:21:00,
2013-09-25 16:27:00,83.4,64.5,29.80,ESE,113,3.0,5.0,53,0.00,,,0.05,Wunderground v.1.15,2013-09-25 21:27:00,
2013-09-25 16:32:00,82.7,64.9,29.80,SE,134,2.0,2.0,55,0.00,,,0.05,Wunderground v.1.15,2013-09-25 21:32:00,
2013-09-25 16:39:00,82.4,65.1,29.80,SSE,158,1.0,3.0,56,0.00,,,0.05,Wunderground v.1.15,2013-09-25 21:39:00,
2013-09-25 16:44:00,83.2,65.4,29.80,East,94,1.0,3.0,55,0.00,,,0.05,Wunderground v.1.15,2013-09-25 21:44:00,
2013-09-25 16:49:00,83.1,64.2,29.80,NE,47,2.0,4.0,53,0.00,,,0.05,Wunderground v.1.15,2013-09-25 21:49:00,
2013-09-25 16:55:00,83.0,66.2,29.80,ESE,105,2.0,2.0,57,0.00,,,0.05,Wunderground v.1.15,2013-09-25 21:55:00,
2013-09-25 17:00:00,83.0,65.7,29.81,ESE,120,1.0,1.0,56,0.00,,,0.05,Wunderground v.1.15,2013-09-25 22:00:00,
2013-09-25 17:06:00,83.0,66.2,29.81,East,82,0.0,2.0,57,0.00,,,0.05,Wunderground v.1.15,2013-09-25 22:06:00,
2013-09-25 17:11:00,82.8,67.5,29.81,ESE,118,0.0,0.0,60,0.00,,,0.05,Wunderground v.1.15,2013-09-25 22:11:00,
2013-09-25 17:16:00,82.7,67.9,29.80,East,101,0.0,0.0,61,0.00,,,0.05,Wunderground v.1.15,2013-09-25 22:16:00,
2013-09-25 17:21:00,82.3,66.0,29.81,East,98,0.0,2.0,58,0.00,,,0.05,Wunderground v.1.15,2013-09-25 22:21:00,
2013-09-25 17:27:00,81.9,65.7,29.81,SE,127,1.0,2.0,58,0.00,,,0.05,Wunderground v.1.15,2013-09-25 22:27:00,
2013-09-25 17:32:00,81.6,66.8,29.81,ESE,119,0.0,1.0,61,0.00,,,0.05,Wunderground v.1.15,2013-09-25 22:32:00,
2013-09-25 17:37:00,81.4,66.7,29.81,SE,132,0.0,1.0,61,0.00,,,0.05,Wunderground v.1.15,2013-09-25 22:37:00,
2013-09-25 17:42:00,81.2,67.4,29.81,SE,132,0.0,0.0,63,0.00,,,0.05,Wunderground v.1.15,2013-09-25 22:42:00,
2013-09-25 17:48:00,80.7,66.9,29.81,SE,126,0.0,0.0,63,0.00,,,0.05,Wunderground v.1.15,2013-09-25 22:48:00,
2013-09-25 17:53:00,80.2,66.9,29.81,SE,126,0.0,0.0,64,0.00,,,0.05,Wunderground v.1.15,2013-09-25 22:53:00,
2013-09-25 17:58:00,80.0,66.3,29.81,SE,125,0.0,0.0,63,0.00,,,0.05,Wunderground v.1.15,2013-09-25 22:58:00,
2013-09-25 18:04:00,79.6,66.3,29.81,SE,126,0.0,0.0,64,0.00,,,0.05,Wunderground v.1.15,2013-09-25 23:04:00,
2013-09-25 18:09:00,78.9,65.7,29.81,SE,126,0.0,0.0,64,0.00,,,0.05,Wunderground v.1.15,2013-09-25 23:09:00,
2013-09-25 18:14:00,78.1,66.2,29.81,SE,126,0.0,0.0,67,0.00,,,0.05,Wunderground v.1.15,2013-09-25 23:14:00,
2013-09-25 18:19:00,77.2,66.2,29.81,SE,124,0.0,0.0,69,0.00,,,0.05,Wunderground v.1.15,2013-09-25 23:19:00,
2013-09-25 18:25:00,76.2,66.9,29.81,SE,124,0.0,0.0,73,0.00,,,0.05,Wunderground v.1.15,2013-09-25 23:25:00,
2013-09-25 18:30:00,75.3,66.0,29.81,SE,124,0.0,0.0,73,0.00,,,0.05,Wunderground v.1.15,2013-09-25 23:30:00,
2013-09-25 18:35:00,74.6,65.8,29.82,SE,124,0.0,0.0,74,0.00,,,0.05,Wunderground v.1.15,2013-09-25 23:35:00,
2013-09-25 18:40:00,74.1,64.9,29.82,ENE,77,0.0,0.0,73,0.00,,,0.05,Wunderground v.1.15,2013-09-25 23:40:00,
2013-09-25 18:45:00,73.9,64.7,29.82,ENE,72,0.0,0.0,73,0.00,,,0.05,Wunderground v.1.15,2013-09-25 23:45:00,
2013-09-25 18:50:00,73.7,64.5,29.82,ESE,103,0.0,0.0,73,0.00,,,0.05,Wunderground v.1.15,2013-09-25 23:50:00,
2013-09-25 18:55:00,73.5,64.7,29.82,East,100,0.0,0.0,74,0.00,,,0.05,Wunderground v.1.15,2013-09-25 23:55:00,
2013-09-25 19:00:00,73.1,64.3,29.82,East,101,0.0,0.0,74,0.00,,,0.05,Wunderground v.1.15,2013-09-26 00:00:00,
2013-09-25 19:06:00,72.3,64.3,29.82,East,101,0.0,0.0,76,0.00,,,0.05,Wunderground v.1.15,2013-09-26 00:06:00,
2013-09-25 19:11:00,71.8,63.8,29.82,East,101,0.0,0.0,76,0.00,,,0.05,Wunderground v.1.15,2013-09-26 00:11:00,
2013-09-25 19:17:00,71.2,64.0,29.82,East,101,0.0,0.0,78,0.00,,,0.05,Wunderground v.1.15,2013-09-26 00:17:00,
2013-09-25 19:22:00,71.0,63.8,29.82,East,101,0.0,0.0,78,0.00,,,0.05,Wunderground v.1.15,2013-09-26 00:22:00,
2013-09-25 19:27:00,70.7,63.9,29.82,East,101,0.0,0.0,79,0.00,,,0.05,Wunderground v.1.15,2013-09-26 00:27:00,
2013-09-25 19:32:00,70.3,64.2,29.83,East,101,0.0,0.0,81,0.00,,,0.05,Wunderground v.1.15,2013-09-26 00:32:00,
2013-09-25 19:38:00,69.8,63.7,29.83,East,101,0.0,0.0,81,0.00,,,0.05,Wunderground v.1.15,2013-09-26 00:38:00,
2013-09-25 19:43:00,69.5,63.4,29.83,East,100,0.0,0.0,81,0.00,,,0.05,Wunderground v.1.15,2013-09-26 00:43:00,
2013-09-25 19:48:00,69.3,63.2,29.83,East,100,0.0,0.0,81,0.00,,,0.05,Wunderground v.1.15,2013-09-26 00:48:00,
2013-09-25 19:53:00,69.2,63.5,29.83,East,100,0.0,0.0,82,0.00,,,0.05,Wunderground v.1.15,2013-09-26 00:53:00,
2013-09-25 19:59:00,69.0,63.6,29.83,East,101,0.0,0.0,83,0.00,,,0.05,Wunderground v.1.15,2013-09-26 00:59:00,
2013-09-25 20:05:00,68.7,63.7,29.83,East,100,0.0,0.0,84,0.00,,,0.05,Wunderground v.1.15,2013-09-26 01:05:00,
2013-09-25 20:11:00,68.6,63.2,29.84,ESE,120,0.0,0.0,83,0.00,,,0.05,Wunderground v.1.15,2013-09-26 01:11:00,
2013-09-25 20:16:00,68.9,63.2,29.84,East,97,0.0,0.0,82,0.00,,,0.05,Wunderground v.1.15,2013-09-26 01:16:00,
2013-09-25 20:21:00,69.0,63.3,29.84,East,98,0.0,0.0,82,0.00,,,0.05,Wunderground v.1.15,2013-09-26 01:21:00,
2013-09-25 20:26:00,68.9,63.2,29.84,SE,127,0.0,0.0,82,0.00,,,0.05,Wunderground v.1.15,2013-09-26 01:26:00,
2013-09-25 20:32:00,68.6,63.2,29.84,ESE,108,0.0,0.0,83,0.00,,,0.05,Wunderground v.1.15,2013-09-26 01:32:00,
2013-09-25 20:38:00,68.2,63.2,29.84,ESE,106,0.0,0.0,84,0.00,,,0.05,Wunderground v.1.15,2013-09-26 01:38:00,
2013-09-25 20:43:00,67.7,63.0,29.85,ESE,106,0.0,0.0,85,0.00,,,0.05,Wunderground v.1.15,2013-09-26 01:43:00,
2013-09-25 20:49:00,67.3,62.6,29.85,ESE,105,0.0,0.0,85,0.00,,,0.05,Wunderground v.1.15,2013-09-26 01:49:00,
2013-09-25 20:54:00,67.0,62.7,29.85,ENE,74,0.0,1.0,86,0.00,,,0.05,Wunderground v.1.15,2013-09-26 01:54:00,
2013-09-25 20:59:00,66.5,62.8,29.85,East,93,0.0,2.0,88,0.00,,,0.05,Wunderground v.1.15,2013-09-26 01:59:00,
2013-09-25 21:05:00,66.4,63.1,29.85,East,93,0.0,0.0,89,0.00,,,0.05,Wunderground v.1.15,2013-09-26 02:05:00,
2013-09-25 21:10:00,66.4,63.1,29.85,East,93,0.0,0.0,89,0.00,,,0.05,Wunderground v.1.15,2013-09-26 02:10:00,
2013-09-25 21:16:00,66.4,63.1,29.85,East,93,0.0,0.0,89,0.00,,,0.05,Wunderground v.1.15,2013-09-26 02:16:00,
2013-09-25 21:21:00,66.2,62.9,29.85,East,93,0.0,1.0,89,0.00,,,0.05,Wunderground v.1.15,2013-09-26 02:21:00,
2013-09-25 21:27:00,65.8,62.5,29.85,East,80,0.0,1.0,89,0.00,,,0.05,Wunderground v.1.15,2013-09-26 02:27:00,
2013-09-25 21:32:00,65.7,62.7,29.85,East,80,0.0,0.0,90,0.00,,,0.05,Wunderground v.1.15,2013-09-26 02:32:00,
2013-09-25 21:37:00,65.7,62.4,29.86,East,80,0.0,0.0,89,0.00,,,0.05,Wunderground v.1.15,2013-09-26 02:37:00,
2013-09-25 21:42:00,65.6,62.6,29.86,East,81,0.0,0.0,90,0.00,,,0.05,Wunderground v.1.15,2013-09-26 02:42:00,
2013-09-25 21:48:00,65.6,62.6,29.86,East,80,0.0,0.0,90,0.00,,,0.05,Wunderground v.1.15,2013-09-26 02:48:00,
2013-09-25 21:53:00,65.6,62.3,29.86,East,80,0.0,0.0,89,0.00,,,0.05,Wunderground v.1.15,2013-09-26 02:53:00,
2013-09-25 21:58:00,65.6,62.3,29.86,East,80,0.0,0.0,89,0.00,,,0.05,Wunderground v.1.15,2013-09-26 02:58:00,
2013-09-25 22:04:00,65.4,62.4,29.86,East,80,0.0,0.0,90,0.00,,,0.05,Wunderground v.1.15,2013-09-26 03:04:00,
2013-09-25 22:09:00,65.2,62.2,29.86,East,80,0.0,0.0,90,0.00,,,0.05,Wunderground v.1.15,2013-09-26 03:09:00,
2013-09-25 22:14:00,64.6,61.6,29.86,East,80,0.0,0.0,90,0.00,,,0.05,Wunderground v.1.15,2013-09-26 03:14:00,
2013-09-25 22:19:00,64.1,61.4,29.87,East,80,0.0,0.0,91,0.00,,,0.05,Wunderground v.1.15,2013-09-26 03:19:00,
2013-09-25 22:24:00,63.7,61.0,29.86,East,80,0.0,0.0,91,0.00,,,0.05,Wunderground v.1.15,2013-09-26 03:24:00,
2013-09-25 22:29:00,63.6,61.2,29.87,East,80,0.0,0.0,92,0.00,,,0.05,Wunderground v.1.15,2013-09-26 03:29:00,
2013-09-25 22:35:00,63.3,60.9,29.87,East,80,0.0,0.0,92,0.00,,,0.05,Wunderground v.1.15,2013-09-26 03:35:00,
2013-09-25 22:40:00,63.1,60.7,29.87,East,80,0.0,0.0,92,0.00,,,0.05,Wunderground v.1.15,2013-09-26 03:40:00,
2013-09-25 22:45:00,63.1,61.0,29.87,East,81,0.0,0.0,93,0.00,,,0.05,Wunderground v.1.15,2013-09-26 03:45:00,
2013-09-25 22:50:00,63.1,61.0,29.87,East,80,0.0,0.0,93,0.00,,,0.05,Wunderground v.1.15,2013-09-26 03:50:00,
2013-09-25 22:56:00,63.1,61.0,29.87,East,80,0.0,0.0,93,0.00,,,0.05,Wunderground v.1.15,2013-09-26 03:56:00,
2013-09-25 23:01:00,63.1,61.3,29.87,East,80,0.0,0.0,94,0.00,,,0.05,Wunderground v.1.15,2013-09-26 04:01:00,
2013-09-25 23:02:00,63.0,61.2,29.87,East,80,0.0,0.0,94,0.00,,,0.05,Wunderground v.1.15,2013-09-26 04:02:00,
2013-09-25 23:05:00,63.0,61.2,29.87,East,80,0.0,0.0,94,0.00,,,0.05,Wunderground v.1.15,2013-09-26 04:05:00,
2013-09-25 23:06:00,63.0,61.2,29.87,East,80,0.0,0.0,94,0.00,,,0.05,Wunderground v.1.15,2013-09-26 04:06:00,
2013-09-25 23:10:00,63.0,61.2,29.87,East,81,0.0,0.0,94,0.00,,,0.05,Wunderground v.1.15,2013-09-26 04:10:00,
2013-09-25 23:15:00,62.8,61.0,29.87,East,80,0.0,0.0,94,0.00,,,0.05,Wunderground v.1.15,2013-09-26 04:15:00,
2013-09-25 23:20:00,62.7,60.9,29.87,East,80,0.0,0.0,94,0.00,,,0.05,Wunderground v.1.15,2013-09-26 04:20:00,
2013-09-25 23:25:00,62.6,60.8,29.87,East,80,0.0,0.0,94,0.00,,,0.05,Wunderground v.1.15,2013-09-26 04:25:00,
2013-09-25 23:30:00,62.6,60.8,29.87,East,80,0.0,0.0,94,0.00,,,0.05,Wunderground v.1.15,2013-09-26 04:30:00,
2013-09-25 23:36:00,62.5,60.7,29.87,East,80,0.0,0.0,94,0.00,,,0.05,Wunderground v.1.15,2013-09-26 04:36:00,
2013-09-25 23:41:00,62.4,60.7,29.87,East,80,0.0,0.0,94,0.00,,,0.05,Wunderground v.1.15,2013-09-26 04:41:00,
2013-09-25 23:46:00,62.1,60.4,29.87,East,81,0.0,0.0,94,0.00,,,0.05,Wunderground v.1.15,2013-09-26 04:46:00,
2013-09-25 23:51:00,61.7,60.0,29.87,East,80,0.0,0.0,94,0.00,,,0.05,Wunderground v.1.15,2013-09-26 04:51:00,
2013-09-25 23:56:00,61.3,59.6,29.87,East,80,0.0,0.0,94,0.00,,,0.05,Wunderground v.1.15,2013-09-26 04:56:00,